Location: ??????????
(54.7560°N, 39.1389°E)
Time: 04:03:44
(UTC+00:00)

ATLAS 3B R/B - Pass Details

Date: 19 May 2025
Orbit: 935 x 1258 km, 63.8° (Epoch: 15 June)

Event Time Altitude Azimuth Distance (km) Brightness Sun altitude
Rises 23:18:36 0° 260° (W) 4,086 5.4 -11.1°
Reaches altitude 10° 23:21:24 10° 265° (W) 3,160 4.8 -10.9°
Maximum altitude 23:28:53 51° 341° (NNW) 1,535 3.8 -10.3°
Drops below altitude 10° 23:36:34 10° 56° (NE) 3,249 6.4 -9.8°
Sets 23:39:30 0° 62° (ENE) 4,209 7.0 -9.5°
